星链-35478(STARLINK-35478)

导读 | 豆包AI

STARLINK-35478是美国SpaceX公司星链(Starlink)星座的卫星之一,于2025年10月08日发射升空。作为星链组网卫星,它将为全球范围内提供低延迟、高速率的卫星互联网接入服务,尤其服务偏远地区与网络基础设施匮乏区域,助力全球互联覆盖,也是美国商业低轨卫星星座组网建设过程中的一环。

基本信息
目录编号:
65917
目录名称:
STARLINK-35478
国际标识:
2025-225H
轨道中心:
EARTH
卫星名称:
星链-35478
卫星全名:
星链-35478(STARLINK-35478)
卫星状态:
在轨 (已飞行178 天)
发射日期:
2025-10-08 UTC
国别 :
美国 (US)
星等 :
--
轨道信息
数据来源 国际轨道数据 AOE轨道数据
星历时间 2026-04-03T11:53:55+0800
1天前
查看轨道信息
2026-03-31T20:00:00+0800
3天前
查看轨道信息
半长轴 6853.332km 6853.389km
偏心率 0.0001107 0.0001226
轨道倾角 53.159° 53.155°
近地点辐角 87.277° 74.940°
升交点赤经 52.099° 64.466°
平近点角 272.836° 10.376°
近地点 474.436km 474.411km
远地点 475.954km 476.093km
周期 94.105分钟 94.106分钟
每日圈数 15.302068 15.301877
详细信息
固有亮度:
5
最大亮度:
2.5
卫星平台:
Starlink V1.0
覆盖范围:
全球
运营商:
太空探索技术公司
运营商所在国:
美国
制造商(研发单位):
太空探索技术公司
制造商所在国:
美国
使用方式:
暂无
卫星简介
Starlink 计划是 SpaceX 推出的全球卫星互联网项目,通过发射低轨道卫星,为全球尤其是偏远地区提供高速、低延迟的互联网服务。自 2019 年起,Starlink 已部署数千颗卫星,旨在缩小全球数字鸿沟,推动互联网普及。该项目还为军事、航空等行业提供通信支持,带来广泛经济效益。
2D轨道图
3D轨道图
轨道高度分析图
轨道倾角分析图
轨道综合分析图
查看轨道综合分析图